Year,Month,Day,Hour,Minute,Value (Times are PST for temperature in C)
2012,10,04,00,00,6.80
2012,10,04,00,01,6.80
2012,10,04,00,02,6.80
2012,10,04,00,03,6.80
2012,10,04,00,04,6.80
2012,10,04,00,05,6.80
2012,10,04,00,06,6.80
2012,10,04,00,07,6.80
2012,10,04,00,08,6.80
2012,10,04,00,09,6.70
2012,10,04,00,10,6.70
2012,10,04,00,11,6.70
2012,10,04,00,12,6.70
2012,10,04,00,13,6.70
2012,10,04,00,14,6.70
2012,10,04,00,15,6.70
2012,10,04,00,16,6.70
2012,10,04,00,17,6.70
2012,10,04,00,18,6.70
2012,10,04,00,19,6.70
2012,10,04,00,20,6.70
2012,10,04,00,21,6.70
2012,10,04,00,22,6.70
2012,10,04,00,23,6.70
2012,10,04,00,24,6.70
2012,10,04,00,25,6.70
2012,10,04,00,26,6.70
2012,10,04,00,27,6.70
2012,10,04,00,28,6.70
2012,10,04,00,29,6.70
2012,10,04,00,30,6.70
2012,10,04,00,31,6.70
2012,10,04,00,32,6.70
2012,10,04,00,33,6.60
2012,10,04,00,34,6.60
2012,10,04,00,35,6.60
2012,10,04,00,36,6.60
2012,10,04,00,37,6.60
2012,10,04,00,38,6.60
2012,10,04,00,39,6.60
2012,10,04,00,40,6.60
2012,10,04,00,41,6.60
2012,10,04,00,42,6.60
2012,10,04,00,43,6.60
2012,10,04,00,44,6.60
2012,10,04,00,45,6.60
2012,10,04,00,46,6.50
2012,10,04,00,47,6.50
2012,10,04,00,48,6.50
2012,10,04,00,49,6.50
2012,10,04,00,50,6.50
2012,10,04,00,51,6.50
2012,10,04,00,52,6.50
2012,10,04,00,53,6.50
2012,10,04,00,54,6.50
2012,10,04,00,55,6.40
2012,10,04,00,56,6.40
2012,10,04,00,57,6.40
2012,10,04,00,58,6.40
2012,10,04,00,59,6.30
2012,10,04,01,00,6.30
2012,10,04,01,01,6.30
2012,10,04,01,02,6.30
2012,10,04,01,03,6.30
2012,10,04,01,04,6.30
2012,10,04,01,05,6.30
2012,10,04,01,06,6.30
2012,10,04,01,07,6.30
2012,10,04,01,08,6.30
2012,10,04,01,09,6.20
2012,10,04,01,10,6.20
2012,10,04,01,11,6.20
2012,10,04,01,12,6.20
2012,10,04,01,13,6.20
2012,10,04,01,14,6.20
2012,10,04,01,15,6.20
2012,10,04,01,16,6.10
2012,10,04,01,17,6.10
2012,10,04,01,18,6.10
2012,10,04,01,19,6.10
2012,10,04,01,20,6.10
2012,10,04,01,21,6.20
2012,10,04,01,22,6.30
2012,10,04,01,23,6.40
2012,10,04,01,24,6.60
2012,10,04,01,25,6.60
2012,10,04,01,26,6.70
2012,10,04,01,27,6.70
2012,10,04,01,28,6.70
2012,10,04,01,29,6.70
2012,10,04,01,30,6.70
2012,10,04,01,31,6.70
2012,10,04,01,32,6.70
2012,10,04,01,33,6.70
2012,10,04,01,34,6.70
2012,10,04,01,35,6.70
2012,10,04,01,36,6.70
2012,10,04,01,37,6.70
2012,10,04,01,38,6.60
2012,10,04,01,39,6.60
2012,10,04,01,40,6.60
2012,10,04,01,41,6.60
2012,10,04,01,42,6.60
2012,10,04,01,43,6.60
2012,10,04,01,44,6.60
2012,10,04,01,45,6.60
2012,10,04,01,46,6.60
2012,10,04,01,47,6.60
2012,10,04,01,48,6.50
2012,10,04,01,49,6.50
2012,10,04,01,50,6.50
2012,10,04,01,51,6.50
2012,10,04,01,52,6.40
2012,10,04,01,53,6.40
2012,10,04,01,54,6.40
2012,10,04,01,55,6.40
2012,10,04,01,56,6.40
2012,10,04,01,57,6.40
2012,10,04,01,58,6.50
2012,10,04,01,59,6.50
2012,10,04,02,00,6.50
2012,10,04,02,01,6.60
2012,10,04,02,02,6.60
2012,10,04,02,03,6.60
2012,10,04,02,04,6.60
2012,10,04,02,05,6.60
2012,10,04,02,06,6.60
2012,10,04,02,07,6.60
2012,10,04,02,08,6.60
2012,10,04,02,09,6.60
2012,10,04,02,10,6.60
2012,10,04,02,11,6.60
2012,10,04,02,12,6.50
2012,10,04,02,13,6.50
2012,10,04,02,14,6.50
2012,10,04,02,15,6.40
2012,10,04,02,16,6.40
2012,10,04,02,17,6.40
2012,10,04,02,18,6.40
2012,10,04,02,19,6.40
2012,10,04,02,20,6.40
2012,10,04,02,21,6.40
2012,10,04,02,22,6.40
2012,10,04,02,23,6.40
2012,10,04,02,24,6.40
2012,10,04,02,25,6.40
2012,10,04,02,26,6.30
2012,10,04,02,27,6.30
2012,10,04,02,28,6.30
2012,10,04,02,29,6.30
2012,10,04,02,30,6.30
2012,10,04,02,31,6.30
2012,10,04,02,32,6.30
2012,10,04,02,33,6.30
2012,10,04,02,34,6.30
2012,10,04,02,35,6.30
2012,10,04,02,36,6.20
2012,10,04,02,37,6.20
2012,10,04,02,38,6.20
2012,10,04,02,39,6.20
2012,10,04,02,40,6.20
2012,10,04,02,41,6.20
2012,10,04,02,42,6.20
2012,10,04,02,43,6.20
2012,10,04,02,44,6.30
2012,10,04,02,45,6.30
2012,10,04,02,46,6.30
2012,10,04,02,47,6.30
2012,10,04,02,48,6.30
2012,10,04,02,49,6.30
2012,10,04,02,50,6.40
2012,10,04,02,51,6.40
2012,10,04,02,52,6.40
2012,10,04,02,53,6.40
2012,10,04,02,54,6.40
2012,10,04,02,55,6.40
2012,10,04,02,56,6.30
2012,10,04,02,57,6.30
2012,10,04,02,58,6.30
2012,10,04,02,59,6.30
2012,10,04,03,00,6.30
2012,10,04,03,01,6.20
2012,10,04,03,02,6.20
2012,10,04,03,03,6.20
2012,10,04,03,04,6.20
2012,10,04,03,05,6.20
2012,10,04,03,06,6.10
2012,10,04,03,07,6.10
2012,10,04,03,08,6.10
2012,10,04,03,09,6.10
2012,10,04,03,10,6.10
2012,10,04,03,11,6.10
2012,10,04,03,12,6.10
2012,10,04,03,13,6.10
2012,10,04,03,14,6.10
2012,10,04,03,15,6.10
2012,10,04,03,16,6.10
2012,10,04,03,17,6.10
2012,10,04,03,18,6.10
2012,10,04,03,19,6.10
2012,10,04,03,20,6.10
2012,10,04,03,21,6.10
2012,10,04,03,22,6.10
2012,10,04,03,23,6.10
2012,10,04,03,24,6.10
2012,10,04,03,25,6.10
2012,10,04,03,26,6.10
2012,10,04,03,27,6.10
2012,10,04,03,28,6.10
2012,10,04,03,29,6.10
2012,10,04,03,30,6.00
2012,10,04,03,31,5.90
2012,10,04,03,32,5.90
2012,10,04,03,33,5.90
2012,10,04,03,34,5.90
2012,10,04,03,35,5.90
2012,10,04,03,36,5.90
2012,10,04,03,37,5.90
2012,10,04,03,38,5.90
2012,10,04,03,39,5.90
2012,10,04,03,40,5.90
2012,10,04,03,41,6.00
2012,10,04,03,42,6.00
2012,10,04,03,43,6.00
2012,10,04,03,44,6.00
2012,10,04,03,45,6.00
2012,10,04,03,46,6.00
2012,10,04,03,47,6.00
2012,10,04,03,48,5.90
2012,10,04,03,49,5.90
2012,10,04,03,50,5.90
2012,10,04,03,51,5.90
2012,10,04,03,52,5.80
2012,10,04,03,53,5.80
2012,10,04,03,54,5.80
2012,10,04,03,55,5.80
2012,10,04,03,56,5.80
2012,10,04,03,57,5.80
2012,10,04,03,58,5.80
2012,10,04,03,59,5.80
2012,10,04,04,00,5.80
2012,10,04,04,01,5.80
2012,10,04,04,02,5.80
2012,10,04,04,03,5.80
2012,10,04,04,04,5.80
2012,10,04,04,05,5.80
2012,10,04,04,06,5.80
2012,10,04,04,07,5.80
2012,10,04,04,08,5.80
2012,10,04,04,09,5.80
2012,10,04,04,10,5.80
2012,10,04,04,11,5.80
2012,10,04,04,12,5.70
2012,10,04,04,13,5.70
2012,10,04,04,14,5.70
2012,10,04,04,15,5.70
2012,10,04,04,16,5.70
2012,10,04,04,17,5.70
2012,10,04,04,18,5.70
2012,10,04,04,19,5.70
2012,10,04,04,20,5.70
2012,10,04,04,21,5.80
2012,10,04,04,22,5.80
2012,10,04,04,23,5.80
2012,10,04,04,24,5.80
2012,10,04,04,25,5.80
2012,10,04,04,26,5.80
2012,10,04,04,27,5.90
2012,10,04,04,28,5.90
2012,10,04,04,29,5.90
2012,10,04,04,30,5.90
2012,10,04,04,31,5.90
2012,10,04,04,32,5.80
2012,10,04,04,33,5.80
2012,10,04,04,34,5.80
2012,10,04,04,35,5.80
2012,10,04,04,36,5.80
2012,10,04,04,37,5.80
2012,10,04,04,38,5.70
2012,10,04,04,39,5.70
2012,10,04,04,40,5.70
2012,10,04,04,41,5.70
2012,10,04,04,42,5.70
2012,10,04,04,43,5.70
2012,10,04,04,44,5.70
2012,10,04,04,45,5.70
2012,10,04,04,46,5.60
2012,10,04,04,47,5.60
2012,10,04,04,48,5.60
2012,10,04,04,49,5.50
2012,10,04,04,50,5.50
2012,10,04,04,51,5.50
2012,10,04,04,52,5.40
2012,10,04,04,53,5.40
2012,10,04,04,54,5.40
2012,10,04,04,55,5.40
2012,10,04,04,56,5.40
2012,10,04,04,57,5.40
2012,10,04,04,58,5.40
2012,10,04,04,59,5.40
2012,10,04,05,00,5.40
2012,10,04,05,01,5.40
2012,10,04,05,02,5.40
2012,10,04,05,03,5.40
2012,10,04,05,04,5.40
2012,10,04,05,05,5.40
2012,10,04,05,06,5.40
2012,10,04,05,07,5.40
2012,10,04,05,08,5.40
2012,10,04,05,09,5.40
2012,10,04,05,10,5.40
2012,10,04,05,11,5.40
2012,10,04,05,12,5.40
2012,10,04,05,13,5.40
2012,10,04,05,14,5.40
2012,10,04,05,15,5.40
2012,10,04,05,16,5.40
2012,10,04,05,17,5.40
2012,10,04,05,18,5.40
2012,10,04,05,19,5.40
2012,10,04,05,20,5.40
2012,10,04,05,21,5.40
2012,10,04,05,22,5.40
2012,10,04,05,23,5.40
2012,10,04,05,24,5.40
2012,10,04,05,25,5.40
2012,10,04,05,26,5.30
2012,10,04,05,27,5.30
2012,10,04,05,28,5.30
2012,10,04,05,29,5.30
2012,10,04,05,30,5.30
2012,10,04,05,31,5.30
2012,10,04,05,32,5.30
2012,10,04,05,33,5.30
2012,10,04,05,34,5.30
2012,10,04,05,35,5.30
2012,10,04,05,36,5.30
2012,10,04,05,37,5.40
2012,10,04,05,38,5.30
2012,10,04,05,39,5.30
2012,10,04,05,40,5.30
2012,10,04,05,41,5.40
2012,10,04,05,42,5.30
2012,10,04,05,43,5.30
2012,10,04,05,44,5.30
2012,10,04,05,45,5.30
2012,10,04,05,46,5.30
2012,10,04,05,47,5.30
2012,10,04,05,48,5.30
2012,10,04,05,49,5.30
2012,10,04,05,50,5.30
2012,10,04,05,51,5.30
2012,10,04,05,52,5.30
2012,10,04,05,53,5.30
2012,10,04,05,54,5.30
2012,10,04,05,55,5.30
2012,10,04,05,56,5.30
2012,10,04,05,57,5.30
2012,10,04,05,58,5.30
2012,10,04,05,59,5.30
2012,10,04,06,00,5.30
2012,10,04,06,01,5.30
2012,10,04,06,02,5.30
2012,10,04,06,03,5.30
2012,10,04,06,04,5.30
2012,10,04,06,05,5.30
2012,10,04,06,06,5.30
2012,10,04,06,07,5.30
2012,10,04,06,08,5.30
2012,10,04,06,09,5.30
2012,10,04,06,10,5.30
2012,10,04,06,11,5.30
2012,10,04,06,12,5.30
2012,10,04,06,13,5.20
2012,10,04,06,14,5.20
2012,10,04,06,15,5.20
2012,10,04,06,16,5.20
2012,10,04,06,17,5.20
2012,10,04,06,18,5.20
2012,10,04,06,19,5.20
2012,10,04,06,20,5.20
2012,10,04,06,21,5.20
2012,10,04,06,22,5.20
2012,10,04,06,23,5.20
2012,10,04,06,24,5.30
2012,10,04,06,25,5.30
2012,10,04,06,26,5.30
2012,10,04,06,27,5.20
2012,10,04,06,28,5.20
2012,10,04,06,29,5.20
2012,10,04,06,30,5.20
2012,10,04,06,31,5.20
2012,10,04,06,32,5.20
2012,10,04,06,33,5.20
2012,10,04,06,34,5.20
2012,10,04,06,35,5.20
2012,10,04,06,36,5.20
2012,10,04,06,37,5.20
2012,10,04,06,38,5.20
2012,10,04,06,39,5.20
2012,10,04,06,40,5.20
2012,10,04,06,41,5.10
2012,10,04,06,42,5.10
2012,10,04,06,43,5.10
2012,10,04,06,44,5.10
2012,10,04,06,45,5.00
2012,10,04,06,46,5.00
2012,10,04,06,47,4.90
2012,10,04,06,48,4.90
2012,10,04,06,49,4.90
2012,10,04,06,50,4.80
2012,10,04,06,51,4.80
2012,10,04,06,52,4.80
2012,10,04,06,53,4.80
2012,10,04,06,54,4.90
2012,10,04,06,55,4.90
2012,10,04,06,56,4.90
2012,10,04,06,57,4.90
2012,10,04,06,58,4.90
2012,10,04,06,59,4.90
2012,10,04,07,00,5.00
2012,10,04,07,01,5.00
2012,10,04,07,02,5.00
2012,10,04,07,03,5.00
2012,10,04,07,04,5.00
2012,10,04,07,05,5.00
2012,10,04,07,06,5.00
2012,10,04,07,07,5.00
2012,10,04,07,08,4.90
2012,10,04,07,09,4.90
2012,10,04,07,10,4.90
2012,10,04,07,11,4.90
2012,10,04,07,12,4.90
2012,10,04,07,13,4.90
2012,10,04,07,14,4.90
2012,10,04,07,15,4.90
2012,10,04,07,16,4.90
2012,10,04,07,17,4.80
2012,10,04,07,18,4.80
2012,10,04,07,19,4.80
2012,10,04,07,20,4.80
2012,10,04,07,21,4.80
2012,10,04,07,22,4.80
2012,10,04,07,23,4.80
2012,10,04,07,24,4.80
2012,10,04,07,25,4.80
2012,10,04,07,26,4.80
2012,10,04,07,27,4.80
2012,10,04,07,28,4.70
2012,10,04,07,29,4.70
2012,10,04,07,30,4.70
2012,10,04,07,31,4.70
2012,10,04,07,32,4.70
2012,10,04,07,33,4.70
2012,10,04,07,34,4.70
2012,10,04,07,35,4.70
2012,10,04,07,36,4.60
2012,10,04,07,37,4.60
2012,10,04,07,38,4.60
2012,10,04,07,39,4.60
2012,10,04,07,40,4.60
2012,10,04,07,41,4.60
2012,10,04,07,42,4.60
2012,10,04,07,43,4.60
2012,10,04,07,44,4.60
2012,10,04,07,45,4.60
2012,10,04,07,46,4.60
2012,10,04,07,47,4.60
2012,10,04,07,48,4.60
2012,10,04,07,49,4.60
2012,10,04,07,50,4.60
2012,10,04,07,51,4.60
2012,10,04,07,52,4.60
2012,10,04,07,53,4.70
2012,10,04,07,54,4.70
2012,10,04,07,55,4.70
2012,10,04,07,56,4.80
2012,10,04,07,57,4.80
2012,10,04,07,58,4.90
2012,10,04,07,59,4.90
2012,10,04,08,00,4.90
2012,10,04,08,01,5.00
2012,10,04,08,02,5.10
2012,10,04,08,03,5.20
2012,10,04,08,04,5.20
2012,10,04,08,05,5.30
2012,10,04,08,06,5.30
2012,10,04,08,07,5.40
2012,10,04,08,08,5.40
2012,10,04,08,09,5.50
2012,10,04,08,10,5.50
2012,10,04,08,11,5.60
2012,10,04,08,12,5.60
2012,10,04,08,13,5.60
2012,10,04,08,14,5.60
2012,10,04,08,15,5.60
2012,10,04,08,16,5.70
2012,10,04,08,17,5.70
2012,10,04,08,18,5.70
2012,10,04,08,19,5.70
2012,10,04,08,20,5.70
2012,10,04,08,21,5.80
2012,10,04,08,22,5.80
2012,10,04,08,23,5.80
2012,10,04,08,24,5.80
2012,10,04,08,25,5.90
2012,10,04,08,26,5.90
2012,10,04,08,27,5.90
2012,10,04,08,28,6.00
2012,10,04,08,29,6.00
2012,10,04,08,30,6.00
2012,10,04,08,31,6.10
2012,10,04,08,32,6.10
2012,10,04,08,33,6.20
2012,10,04,08,34,6.20
2012,10,04,08,35,6.30
2012,10,04,08,36,6.30
2012,10,04,08,37,6.40
2012,10,04,08,38,6.40
2012,10,04,08,39,6.50
2012,10,04,08,40,6.50
2012,10,04,08,41,6.50
2012,10,04,08,42,6.50
2012,10,04,08,43,6.50
2012,10,04,08,44,6.50
2012,10,04,08,45,6.60
2012,10,04,08,46,6.60
2012,10,04,08,47,6.60
2012,10,04,08,48,6.60
2012,10,04,08,49,6.60
2012,10,04,08,50,6.60
2012,10,04,08,51,6.70
2012,10,04,08,52,6.70
2012,10,04,08,53,6.70
2012,10,04,08,54,6.70
2012,10,04,08,55,6.80
2012,10,04,08,56,6.80
2012,10,04,08,57,6.80
2012,10,04,08,58,6.90
2012,10,04,08,59,6.90
2012,10,04,09,00,7.00
2012,10,04,09,01,7.10
2012,10,04,09,02,7.10
2012,10,04,09,03,7.20
2012,10,04,09,04,7.30
2012,10,04,09,05,7.30
2012,10,04,09,06,7.40
2012,10,04,09,07,7.50
2012,10,04,09,08,7.60
2012,10,04,09,09,7.70
2012,10,04,09,10,7.80
2012,10,04,09,11,7.90
2012,10,04,09,12,8.00
2012,10,04,09,13,8.00
2012,10,04,09,14,8.10
2012,10,04,09,15,8.20
2012,10,04,09,16,8.20
2012,10,04,09,17,8.30
2012,10,04,09,18,8.40
2012,10,04,09,19,8.40
2012,10,04,09,20,8.50
2012,10,04,09,21,8.60
2012,10,04,09,22,8.60
2012,10,04,09,23,8.70
2012,10,04,09,24,8.80
2012,10,04,09,25,8.90
2012,10,04,09,26,8.90
2012,10,04,09,27,9.00
2012,10,04,09,28,9.10
2012,10,04,09,29,9.20
2012,10,04,09,30,9.30
2012,10,04,09,31,9.40
2012,10,04,09,32,9.40
2012,10,04,09,33,9.50
2012,10,04,09,34,9.50
2012,10,04,09,35,9.60
2012,10,04,09,36,9.70
2012,10,04,09,37,9.70
2012,10,04,09,38,9.80
2012,10,04,09,39,9.90
2012,10,04,09,40,9.90
2012,10,04,09,41,10.00
2012,10,04,09,42,10.10
2012,10,04,09,43,10.10
2012,10,04,09,44,10.20
2012,10,04,09,45,10.20
2012,10,04,09,46,10.20
2012,10,04,09,47,10.20
2012,10,04,09,48,10.30
2012,10,04,09,49,10.30
2012,10,04,09,50,10.40
2012,10,04,09,51,10.40
2012,10,04,09,52,10.50
2012,10,04,09,53,10.50
2012,10,04,09,54,10.60
2012,10,04,09,55,10.70
2012,10,04,09,56,10.70
2012,10,04,09,57,10.80
2012,10,04,09,58,10.90
2012,10,04,09,59,10.90
2012,10,04,10,00,11.00
2012,10,04,10,01,11.10
2012,10,04,10,02,11.10
2012,10,04,10,03,11.20
2012,10,04,10,04,11.30
2012,10,04,10,05,11.40
2012,10,04,10,06,11.60
2012,10,04,10,07,11.70
2012,10,04,10,08,11.80
2012,10,04,10,09,12.00
2012,10,04,10,10,12.10
2012,10,04,10,11,12.20
2012,10,04,10,12,12.30
2012,10,04,10,13,12.40
2012,10,04,10,14,12.50
2012,10,04,10,15,12.70
2012,10,04,10,16,12.80
2012,10,04,10,17,12.90
2012,10,04,10,18,13.00
2012,10,04,10,19,13.00
2012,10,04,10,20,13.10
2012,10,04,10,21,13.20
2012,10,04,10,22,13.20
2012,10,04,10,23,13.20
2012,10,04,10,24,13.30
2012,10,04,10,25,13.30
2012,10,04,10,26,13.40
2012,10,04,10,27,13.40
2012,10,04,10,28,13.40
2012,10,04,10,29,13.50
2012,10,04,10,30,13.50
2012,10,04,10,31,13.60
2012,10,04,10,32,13.60
2012,10,04,10,33,13.60
2012,10,04,10,34,13.70
2012,10,04,10,35,13.80
2012,10,04,10,36,13.90
2012,10,04,10,37,13.90
2012,10,04,10,38,13.90
2012,10,04,10,39,13.90
2012,10,04,10,40,13.90
2012,10,04,10,41,13.90
2012,10,04,10,42,13.80
2012,10,04,10,43,13.80
2012,10,04,10,44,13.80
2012,10,04,10,45,13.80
2012,10,04,10,46,13.80
2012,10,04,10,47,13.80
2012,10,04,10,48,13.80
2012,10,04,10,49,13.70
2012,10,04,10,50,13.70
2012,10,04,10,51,13.70
2012,10,04,10,52,13.70
2012,10,04,10,53,13.70
2012,10,04,10,54,13.70
2012,10,04,10,55,13.80
2012,10,04,10,56,13.80
2012,10,04,10,57,13.90
2012,10,04,10,58,14.00
2012,10,04,10,59,14.10
2012,10,04,11,00,14.10
2012,10,04,11,01,14.10
2012,10,04,11,02,14.00
2012,10,04,11,03,14.00
2012,10,04,11,04,14.00
2012,10,04,11,05,14.00
2012,10,04,11,06,13.90
2012,10,04,11,07,14.00
2012,10,04,11,08,14.00
2012,10,04,11,09,13.90
2012,10,04,11,10,13.90
2012,10,04,11,11,13.90
2012,10,04,11,12,13.80
2012,10,04,11,13,13.80
2012,10,04,11,14,13.80
2012,10,04,11,15,13.80
2012,10,04,11,16,13.70
2012,10,04,11,17,13.70
2012,10,04,11,18,13.70
2012,10,04,11,19,13.70
2012,10,04,11,20,13.70
2012,10,04,11,21,13.60
2012,10,04,11,22,13.70
2012,10,04,11,23,13.70
2012,10,04,11,24,13.70
2012,10,04,11,25,13.70
2012,10,04,11,26,13.70
2012,10,04,11,27,13.80
2012,10,04,11,28,13.80
2012,10,04,11,29,13.80
2012,10,04,11,30,13.80
2012,10,04,11,31,13.80
2012,10,04,11,32,13.80
2012,10,04,11,33,13.80
2012,10,04,11,34,13.80
2012,10,04,11,35,13.80
2012,10,04,11,36,13.80
2012,10,04,11,37,13.80
2012,10,04,11,38,13.80
2012,10,04,11,39,13.70
2012,10,04,11,40,13.70
2012,10,04,11,41,13.70
2012,10,04,11,42,13.80
2012,10,04,11,43,13.80
2012,10,04,11,44,13.80
2012,10,04,11,45,13.80
2012,10,04,11,46,13.80
2012,10,04,11,47,13.90
2012,10,04,11,48,13.90
2012,10,04,11,49,13.90
2012,10,04,11,50,13.90
2012,10,04,11,51,14.00
2012,10,04,11,52,14.00
2012,10,04,11,53,14.00
2012,10,04,11,54,14.00
2012,10,04,11,55,14.00
2012,10,04,11,56,14.10
2012,10,04,11,57,14.10
2012,10,04,11,58,14.10
2012,10,04,11,59,14.20
2012,10,04,12,00,14.10
2012,10,04,12,01,14.10
2012,10,04,12,02,14.00
2012,10,04,12,03,14.00
2012,10,04,12,04,14.00
2012,10,04,12,05,14.00
2012,10,04,12,06,14.00
2012,10,04,12,07,14.00
2012,10,04,12,08,14.00
2012,10,04,12,09,14.00
2012,10,04,12,10,14.00
2012,10,04,12,11,14.10
2012,10,04,12,12,14.10
2012,10,04,12,13,14.10
2012,10,04,12,14,14.20
2012,10,04,12,15,14.20
2012,10,04,12,16,14.20
2012,10,04,12,17,14.20
2012,10,04,12,18,14.20
2012,10,04,12,19,14.30
2012,10,04,12,20,14.30
2012,10,04,12,21,14.30
2012,10,04,12,22,14.30
2012,10,04,12,23,14.20
2012,10,04,12,24,14.20
2012,10,04,12,25,14.20
2012,10,04,12,26,14.20
2012,10,04,12,27,14.20
2012,10,04,12,28,14.20
2012,10,04,12,29,14.20
2012,10,04,12,30,14.20
2012,10,04,12,31,14.20
2012,10,04,12,32,14.20
2012,10,04,12,33,14.20
2012,10,04,12,34,14.20
2012,10,04,12,35,14.20
2012,10,04,12,36,14.10
2012,10,04,12,37,14.00
2012,10,04,12,38,13.90
2012,10,04,12,39,13.80
2012,10,04,12,40,13.70
2012,10,04,12,41,13.50
2012,10,04,12,42,13.50
2012,10,04,12,43,13.40
2012,10,04,12,44,13.30
2012,10,04,12,45,13.30
2012,10,04,12,46,13.30
2012,10,04,12,47,13.30
2012,10,04,12,48,13.20
2012,10,04,12,49,13.20
2012,10,04,12,50,13.20
2012,10,04,12,51,13.20
2012,10,04,12,52,13.20
2012,10,04,12,53,13.20
2012,10,04,12,54,13.20
2012,10,04,12,55,13.20
2012,10,04,12,56,13.10
2012,10,04,12,57,13.10
2012,10,04,12,58,13.10
2012,10,04,12,59,13.10
2012,10,04,13,00,13.10
2012,10,04,13,01,13.10
2012,10,04,13,02,13.10
2012,10,04,13,03,13.10
2012,10,04,13,04,13.10
2012,10,04,13,05,13.10
2012,10,04,13,06,13.20
2012,10,04,13,07,13.20
2012,10,04,13,08,13.20
2012,10,04,13,09,13.30
2012,10,04,13,10,13.40
2012,10,04,13,11,13.40
2012,10,04,13,12,13.50
2012,10,04,13,13,13.50
2012,10,04,13,14,13.60
2012,10,04,13,15,13.60
2012,10,04,13,16,13.60
2012,10,04,13,17,13.70
2012,10,04,13,18,13.70
2012,10,04,13,19,13.70
2012,10,04,13,20,13.80
2012,10,04,13,21,13.80
2012,10,04,13,22,13.90
2012,10,04,13,23,14.00
2012,10,04,13,24,14.00
2012,10,04,13,25,14.10
2012,10,04,13,26,14.10
2012,10,04,13,27,14.20
2012,10,04,13,28,14.20
2012,10,04,13,29,14.20
2012,10,04,13,30,14.20
2012,10,04,13,31,14.20
2012,10,04,13,32,14.10
2012,10,04,13,33,14.10
2012,10,04,13,34,14.00
2012,10,04,13,35,14.00
2012,10,04,13,36,14.00
2012,10,04,13,37,14.10
2012,10,04,13,38,14.10
2012,10,04,13,39,14.10
2012,10,04,13,40,14.20
2012,10,04,13,41,14.20
2012,10,04,13,42,14.20
2012,10,04,13,43,14.10
2012,10,04,13,44,14.10
2012,10,04,13,45,14.20
2012,10,04,13,46,14.20
2012,10,04,13,47,14.30
2012,10,04,13,48,14.40
2012,10,04,13,49,14.60
2012,10,04,13,50,14.70
2012,10,04,13,51,14.80
2012,10,04,13,52,14.80
2012,10,04,13,53,14.90
2012,10,04,13,54,15.00
2012,10,04,13,55,15.10
2012,10,04,13,56,15.10
2012,10,04,13,57,15.00
2012,10,04,13,58,15.00
2012,10,04,13,59,15.10
2012,10,04,14,00,15.10
2012,10,04,14,01,15.10
2012,10,04,14,02,15.10
2012,10,04,14,03,15.10
2012,10,04,14,04,15.20
2012,10,04,14,05,15.20
2012,10,04,14,06,15.30
2012,10,04,14,07,15.30
2012,10,04,14,08,15.30
2012,10,04,14,09,15.40
2012,10,04,14,10,15.40
2012,10,04,14,11,15.30
2012,10,04,14,12,15.40
2012,10,04,14,13,15.40
2012,10,04,14,14,15.50
2012,10,04,14,15,15.50
2012,10,04,14,16,15.50
2012,10,04,14,17,15.50
2012,10,04,14,18,15.40
2012,10,04,14,19,15.40
2012,10,04,14,20,15.30
2012,10,04,14,21,15.30
2012,10,04,14,22,15.20
2012,10,04,14,23,15.30
2012,10,04,14,24,15.30
2012,10,04,14,25,15.40
2012,10,04,14,26,15.40
2012,10,04,14,27,15.50
2012,10,04,14,28,15.50
2012,10,04,14,29,15.60
2012,10,04,14,30,15.70
2012,10,04,14,31,15.80
2012,10,04,14,32,15.70
2012,10,04,14,33,15.70
2012,10,04,14,34,15.70
2012,10,04,14,35,15.70
2012,10,04,14,36,15.70
2012,10,04,14,37,15.70
2012,10,04,14,38,15.70
2012,10,04,14,39,15.70
2012,10,04,14,40,15.70
2012,10,04,14,41,15.70
2012,10,04,14,42,15.60
2012,10,04,14,43,15.60
2012,10,04,14,44,15.60
2012,10,04,14,45,15.60
2012,10,04,14,46,15.60
2012,10,04,14,47,15.60
2012,10,04,14,48,15.60
2012,10,04,14,49,15.50
2012,10,04,14,50,15.50
2012,10,04,14,51,15.50
2012,10,04,14,52,15.50
2012,10,04,14,53,15.50
2012,10,04,14,54,15.50
2012,10,04,14,55,15.40
2012,10,04,14,56,15.40
2012,10,04,14,57,15.40
2012,10,04,14,58,15.40
2012,10,04,14,59,15.40
2012,10,04,15,00,15.40
2012,10,04,15,01,15.40
2012,10,04,15,02,15.30
2012,10,04,15,03,15.20
2012,10,04,15,04,15.20
2012,10,04,15,05,15.20
2012,10,04,15,06,15.30
2012,10,04,15,07,15.30
2012,10,04,15,08,15.30
2012,10,04,15,09,15.40
2012,10,04,15,10,15.30
2012,10,04,15,11,15.30
2012,10,04,15,12,15.20
2012,10,04,15,13,15.20
2012,10,04,15,14,15.20
2012,10,04,15,15,15.30
2012,10,04,15,16,15.30
2012,10,04,15,17,15.40
2012,10,04,15,18,15.40
2012,10,04,15,19,15.40
2012,10,04,15,20,15.40
2012,10,04,15,21,15.50
2012,10,04,15,22,15.50
2012,10,04,15,23,15.60
2012,10,04,15,24,15.60
2012,10,04,15,25,15.50
2012,10,04,15,26,15.50
2012,10,04,15,27,15.50
2012,10,04,15,28,15.50
2012,10,04,15,29,15.50
2012,10,04,15,30,15.40
2012,10,04,15,31,15.50
2012,10,04,15,32,15.40
2012,10,04,15,33,15.40
2012,10,04,15,34,15.40
2012,10,04,15,35,15.40
2012,10,04,15,36,15.40
2012,10,04,15,37,15.40
2012,10,04,15,38,15.40
2012,10,04,15,39,15.40
2012,10,04,15,40,15.40
2012,10,04,15,41,15.40
2012,10,04,15,42,15.50
2012,10,04,15,43,15.40
2012,10,04,15,44,15.50
2012,10,04,15,45,15.50
2012,10,04,15,46,15.60
2012,10,04,15,47,15.60
2012,10,04,15,48,15.50
2012,10,04,15,49,15.50
2012,10,04,15,50,15.50
2012,10,04,15,51,15.50
2012,10,04,15,52,15.50
2012,10,04,15,53,15.40
2012,10,04,15,54,15.40
2012,10,04,15,55,15.30
2012,10,04,15,56,15.30
2012,10,04,15,57,15.20
2012,10,04,15,58,15.20
2012,10,04,15,59,15.10
2012,10,04,16,00,15.10
2012,10,04,16,01,15.10
2012,10,04,16,02,15.00
2012,10,04,16,03,15.00
2012,10,04,16,04,14.90
2012,10,04,16,05,14.80
2012,10,04,16,06,14.80
2012,10,04,16,07,14.80
2012,10,04,16,08,14.80
2012,10,04,16,09,14.70
2012,10,04,16,10,14.70
2012,10,04,16,11,14.80
2012,10,04,16,12,14.80
2012,10,04,16,13,14.80
2012,10,04,16,14,14.80
2012,10,04,16,15,14.90
2012,10,04,16,16,14.90
2012,10,04,16,17,14.90
2012,10,04,16,18,14.90
2012,10,04,16,19,14.80
2012,10,04,16,20,14.80
2012,10,04,16,21,14.80
2012,10,04,16,22,14.80
2012,10,04,16,23,14.80
2012,10,04,16,24,14.80
2012,10,04,16,25,14.80
2012,10,04,16,26,14.80
2012,10,04,16,27,14.80
2012,10,04,16,28,14.80
2012,10,04,16,29,14.90
2012,10,04,16,30,14.90
2012,10,04,16,31,15.00
2012,10,04,16,32,15.00
2012,10,04,16,33,15.00
2012,10,04,16,34,15.00
2012,10,04,16,35,15.10
2012,10,04,16,36,15.10
2012,10,04,16,37,15.10
2012,10,04,16,38,15.10
2012,10,04,16,39,15.10
2012,10,04,16,40,15.10
2012,10,04,16,41,15.10
2012,10,04,16,42,15.10
2012,10,04,16,43,15.10
2012,10,04,16,44,15.10
2012,10,04,16,45,15.10
2012,10,04,16,46,15.10
2012,10,04,16,47,15.10
2012,10,04,16,48,15.10
2012,10,04,16,49,15.10
2012,10,04,16,50,15.10
2012,10,04,16,51,15.00
2012,10,04,16,52,15.00
2012,10,04,16,53,15.10
2012,10,04,16,54,15.10
2012,10,04,16,55,15.10
2012,10,04,16,56,15.20
2012,10,04,16,57,15.20
2012,10,04,16,58,15.20
2012,10,04,16,59,15.20
2012,10,04,17,00,15.10
2012,10,04,17,01,15.10
2012,10,04,17,02,15.00
2012,10,04,17,03,15.00
2012,10,04,17,04,15.00
2012,10,04,17,05,15.00
2012,10,04,17,06,14.90
2012,10,04,17,07,14.90
2012,10,04,17,08,14.90
2012,10,04,17,09,14.90
2012,10,04,17,10,14.90
2012,10,04,17,11,14.90
2012,10,04,17,12,14.90
2012,10,04,17,13,14.80
2012,10,04,17,14,14.80
2012,10,04,17,15,14.80
2012,10,04,17,16,14.80
2012,10,04,17,17,14.90
2012,10,04,17,18,14.90
2012,10,04,17,19,14.90
2012,10,04,17,20,14.90
2012,10,04,17,21,14.80
2012,10,04,17,22,14.80
2012,10,04,17,23,14.80
2012,10,04,17,24,14.80
2012,10,04,17,25,14.80
2012,10,04,17,26,14.70
2012,10,04,17,27,14.70
2012,10,04,17,28,14.70
2012,10,04,17,29,14.70
2012,10,04,17,30,14.70
2012,10,04,17,31,14.70
2012,10,04,17,32,14.70
2012,10,04,17,33,14.70
2012,10,04,17,34,14.70
2012,10,04,17,35,14.70
2012,10,04,17,36,14.70
2012,10,04,17,37,14.70
2012,10,04,17,38,14.70
2012,10,04,17,39,14.70
2012,10,04,17,40,14.60
2012,10,04,17,41,14.60
2012,10,04,17,42,14.60
2012,10,04,17,43,14.60
2012,10,04,17,44,14.60